GFSSGP_con_lsi_159.txt.gz
Lid_Strength_Index
2 5 4 4 10 12 14 12 9 10 8 7 5 7 9 8 9 12 2 1 1 0 -0 -1 -1 -1 -1 -1 -1 -1 -1 -1 -1 -1 -1 -1 -1 -1 -1 -1 -1 -1 -2 -1 -1 -1 -1 -1 -2
4 4 5 8 12 15 13 10 10 7 7 5 6 6 8 9 5 4 3 1 0 0 -0 -0 -1 -1 -1 -1 -1 -1 -1 -1 -1 -1 -1 -1 -1 -1 -1 -1 -1 -1 -1 -1 -1 -1 -1 -2 -1
3 4 8 10 13 14 14 10 8 6 5 5 6 5 6 7 4 3 1 0 1 0 -0 -0 -1 -1 -1 -1 -1 -1 -1 -1 -1 -1 -1 -1 -1 -1 -1 -1 -1 -1 -1 -1 -1 -1 -1 -1 -1
7 7 8 12 13 10 10 9 8 7 6 5 6 9 5 3 4 2 1 0 0 0 -0 -0 -0 -1 -1 -1 -1 -1 -0 -0 -1 -1 -1 -1 -1 -1 -1 -1 -1 -1 -1 -2 -1 -1 -1 -1 -1
8 9 12 13 11 10 8 8 8 7 6 6 6 8 7 3 2 1 1 0 1 1 0 -0 0 -0 -1 -1 -1 -1 -0 -0 -1 -1 -1 -1 -1 -1 -1 -1 -1 -1 -1 -1 -1 -1 -1 -1 -1
11 9 13 14 12 9 8 8 7 7 6 6 7 7 7 3 2 2 1 1 1 1 1 -0 -1 -0 -0 -0 -1 -1 -1 -1 -1 -1 -1 -1 -1 -1 -1 -1 -1 -1 -1 -1 -1 -1 -1 -1 -1
12 13 14 12 11 9 8 7 7 7 7 6 5 9 6 4 2 1 1 1 1 1 -0 -0 -0 -0 -0 0 0 -0 -0 -0 -0 -1 -0 -1 -0 -0 -1 -1 -1 -1 -1 -1 -1 -1 -0 -1 -1
10 11 13 12 11 11 7 6 6 6 8 3 4 9 9 4 2 1 1 1 1 0 0 0 0 1 1 1 0 0 -0 -0 -0 -0 -0 -0 -0 -1 -1 -1 -1 -1 -1 -1 -1 -1 -1 -1 -0
9 13 14 12 12 10 7 8 7 5 6 5 5 5 4 2 2 2 3 2 2 1 1 0 0 0 1 1 0 -0 -1 -1 -1 -0 -0 0 -0 -0 -0 -0 -0 -0 -0 -1 -1 -1 -0 -0 -0
11 14 13 9 10 10 9 9 8 7 6 6 6 4 3 3 3 4 4 4 3 2 1 0 1 1 0 -0 0 0 -0 0 0 0 -0 1 1 2 1 1 1 0 -0 -0 -0 -0 -0 -0 -0
11 13 10 9 8 9 10 8 7 8 7 6 7 6 4 4 4 4 3 3 3 2 1 1 0 0 1 1 1 0 1 1 1 0 1 1 1 1 1 2 2 1 -0 0 -0 -0 -0 -0 0
11 9 9 9 8 9 9 8 8 8 7 5 4 4 4 4 4 4 4 3 3 2 2 1 0 0 1 1 0 1 1 1 1 1 0 0 1 2 2 2 2 3 3 2 2 1 1 2 1
10 10 9 9 9 9 8 9 9 9 7 6 6 4 5 4 4 3 3 2 2 2 3 3 3 3 3 4 4 4 4 3 2 2 2 1 1 2 2 2 2 3 3 3 3 2 2 1 1
8 8 8 8 9 8 8 9 10 9 7 7 7 5 5 4 4 4 3 3 3 3 3 4 4 4 3 3 3 4 4 3 3 3 4 3 2 1 2 2 2 1 1 2 2 2 2 2 2
8 10 8 8 8 9 8 10 10 8 8 9 8 5 5 4 4 4 3 4 4 4 4 3 3 3 2 2 3 3 2 3 3 3 3 4 3 3 3 2 3 4 4 4 4 4 3 3 4
9 9 12 9 8 8 10 12 10 9 9 9 9 8 5 4 4 3 3 4 4 5 5 4 2 2 2 3 3 3 3 3 4 3 3 3 4 4 4 4 5 5 4 5 6 5 6 5 5
11 14 12 11 8 8 10 11 9 8 8 9 9 8 7 5 4 3 3 4 5 5 5 5 3 3 3 3 4 4 4 4 4 4 4 4 4 4 5 5 5 5 5 6 5 5 5 5 6
13 13 13 12 10 9 10 11 10 9 9 9 9 9 8 6 5 3 3 4 5 5 5 5 4 3 3 4 4 5 5 5 4 5 5 5 5 5 6 6 6 6 6 7 7 6 6 6 6
11 11 12 10 9 9 10 10 9 8 9 9 9 9 8 7 5 4 3 5 6 6 6 5 5 4 4 5 6 5 6 6 6 6 6 6 6 6 7 7 7 6 7 7 7 7 7 7 7
10 11 11 10 8 9 10 10 10 8 8 8 8 8 8 8 7 4 4 5 6 6 6 5 5 4 4 5 5 5 6 6 7 7 7 7 7 7 7 8 7 6 7 7 7 8 7 7 7
10 11 11 11 9 10 11 11 11 9 8 7 7 7 7 7 7 5 4 6 6 6 6 5 4 4 4 4 5 6 7 7 8 8 8 8 7 7 7 7 7 7 7 7 8 8 8 8 7
12 9 9 10 12 15 11 16 12 10 9 8 8 8 7 7 6 5 4 6 6 6 5 5 5 4 4 5 5 6 8 9 9 9 9 8 8 7 7 7 7 8 8 8 8 8 9 8 9
10 9 9 10 12 13 13 14 13 9 9 9 8 7 7 7 6 6 6 6 7 6 7 5 5 5 4 5 5 6 8 8 8 9 9 9 9 8 8 8 8 9 9 9 9 9 10 9 10
9 10 10 10 12 18 13 13 14 12 10 9 8 7 7 7 7 5 4 5 6 6 6 6 5 5 5 5 6 7 8 8 9 9 9 10 9 9 8 8 9 9 9 9 10 10 10 11 11
10 12 17 19 19 19 12 13 12 9 8 8 8 8 7 7 7 6 6 5 6 6 6 5 4 5 5 5 6 6 7 8 9 9 9 10 10 10 9 9 9 9 9 9 10 10 11 11 11
10 11 17 21 21 18 12 16 13 8 7 7 8 9 9 8 6 7 6 6 5 5 5 5 5 5 4 5 5 5 6 8 8 8 9 9 9 9 9 9 9 9 9 9 10 10 11 11 11
11 13 10 15 15 19 16 13 9 8 8 7 8 9 10 9 9 8 6 5 6 5 5 5 5 4 4 4 5 4 5 7 8 8 8 9 9 8 9 9 9 10 10 10 10 11 11 11 11
10 9 15 15 21 22 17 15 15 11 10 8 8 9 9 8 8 7 7 6 5 5 4 5 5 5 5 5 4 4 4 5 6 7 8 8 8 8 9 9 9 10 10 11 11 11 12 12 12
12 12 11 13 15 20 20 17 10 10 9 9 9 8 9 8 8 7 7 6 5 5 4 5 5 5 5 5 5 5 5 5 6 7 8 8 8 8 9 10 10 10 11 11 12 12 12 12 12
9 11 11 17 17 16 17 17 8 9 8 8 9 9 9 7 8 8 7 6 6 5 5 5 5 5 5 5 5 6 5 5 6 7 8 8 9 9 10 10 11 11 11 12 12 12 12 12 13

GFSSGP_con_lsi_162.txt.gz
Lid_Strength_Index
3 6 6 5 12 13 15 12 11 10 9 7 6 7 9 8 9 11 2 1 0 0 -0 -1 -0 -1 -1 -1 -1 -1 -1 -1 -1 -1 -1 -1 -1 -1 -1 -1 -1 -1 -1 -1 -1 -1 -1 -1 -2
4 5 6 9 13 15 14 12 10 9 7 6 6 7 8 9 5 4 3 1 0 0 -0 -0 -0 -1 -1 -1 -1 -1 -1 -1 -1 -1 -1 -1 -1 -1 -1 -1 -1 -1 -2 -1 -1 -1 -1 -2 -2
4 5 9 11 14 15 14 11 9 7 6 6 7 6 7 8 4 4 1 1 1 0 -0 -0 -0 -0 -1 -1 -1 -1 -1 -1 -1 -1 -1 -1 -1 -1 -1 -1 -1 -1 -1 -1 -1 -1 -1 -1 -1
7 8 9 13 13 12 11 9 9 7 7 6 7 9 5 3 4 2 1 1 0 0 -0 -0 -0 -0 -1 -1 -1 -1 -1 -0 -1 -1 -1 -1 -1 -1 -1 -1 -1 -1 -1 -1 -1 -1 -1 -1 -1
10 10 13 14 13 11 9 9 9 8 7 7 7 9 8 4 2 1 1 1 1 0 -0 -0 -0 -1 -1 -1 -1 -0 -0 -0 -0 -1 -1 -1 -1 -1 -1 -1 -1 -1 -1 -1 -1 -1 -1 -1 -1
12 11 14 15 13 10 9 9 8 7 7 7 7 8 7 3 2 2 1 1 1 0 -0 -0 -1 -1 -1 -1 -0 0 -0 -0 -0 -0 -1 -1 -1 -1 -1 -1 -1 -1 -1 -1 -1 -0 -1 -1 -1
13 14 15 14 12 11 8 7 8 8 7 8 5 9 6 4 2 1 1 1 1 1 -0 0 0 -0 -0 0 0 0 -0 -0 -0 -0 -0 -0 -0 -0 -1 -1 -1 -1 -0 -0 -0 -0 -0 -0 -0
11 12 14 13 13 13 9 8 8 7 8 4 4 9 9 4 2 2 2 2 2 2 2 0 0 0 1 0 0 0 -0 -0 -0 -0 -0 -0 -0 -0 -0 -0 -1 -1 -1 -1 -1 -0 -0 -0 -0
10 14 15 14 13 11 9 9 8 7 6 6 5 5 4 2 2 2 3 3 2 2 2 1 0 1 1 1 -0 -0 -0 -0 -0 -0 -0 0 0 0 -0 -0 -0 -1 -0 -0 -1 -0 -0 -0 -0
12 15 13 11 12 11 10 10 9 9 8 7 6 4 3 3 3 4 4 4 3 2 1 1 1 2 2 -0 1 1 -0 0 1 0 0 1 2 1 1 1 0 -0 0 -0 -0 -0 0 0 -0
12 13 11 10 10 11 10 10 9 10 9 6 8 6 4 4 4 4 4 3 3 2 1 1 1 1 1 1 2 1 1 1 1 1 1 2 2 1 2 2 2 1 0 -0 -0 -0 -0 0 0
11 10 10 10 9 10 10 10 10 10 9 7 5 4 4 4 4 4 4 3 3 2 1 1 1 1 1 1 1 1 1 2 2 2 2 3 3 3 2 2 2 3 3 2 2 1 1 1 1
10 10 8 8 8 8 8 10 10 11 9 8 4 4 5 4 4 3 3 3 2 2 2 1 0 1 2 2 2 2 3 3 3 3 3 2 2 3 3 3 3 3 2 2 3 2 2 2 2
9 9 9 8 8 8 9 10 12 9 8 9 7 5 5 5 4 4 4 3 3 2 2 2 2 2 4 5 5 5 4 4 4 4 4 3 2 2 2 3 3 3 3 3 3 3 3 3 3
8 10 9 9 8 9 8 12 11 8 8 9 9 5 5 4 4 4 3 3 3 2 2 3 4 5 5 6 6 6 6 5 5 5 4 4 4 4 2 2 3 5 5 5 5 5 4 4 5
10 11 13 10 8 8 10 12 9 8 9 9 9 9 5 5 4 3 3 3 3 3 3 4 4 6 6 6 6 5 5 5 5 5 5 5 5 5 5 5 5 5 5 5 5 6 6 6 7
12 15 13 12 9 9 11 12 9 8 9 10 10 10 5 5 4 3 3 3 3 4 5 5 5 6 5 6 5 5 5 5 5 5 5 5 5 5 5 5 5 5 6 6 5 6 7 8 8
14 14 15 14 11 9 11 12 9 9 9 10 10 10 10 5 5 3 3 3 5 5 5 5 5 5 6 5 5 5 6 6 6 6 6 5 5 4 5 6 7 6 7 7 7 7 6 7 7
11 12 13 11 9 11 11 12 10 9 9 9 9 9 9 8 4 3 4 6 6 6 6 6 6 6 7 6 6 6 7 7 6 6 5 5 6 6 6 7 7 7 8 8 7 7 7 8 8
11 12 12 11 9 10 11 12 10 9 9 9 9 9 8 9 8 6 6 7 7 7 6 6 6 6 6 6 6 6 7 8 7 7 6 6 6 7 7 8 8 8 8 8 8 8 8 8 8
11 12 12 12 10 10 11 12 12 9 8 8 8 8 8 8 8 6 6 7 6 7 6 6 6 6 6 6 6 7 8 8 8 8 8 8 7 7 7 7 8 8 8 9 9 9 8 9 9
13 9 10 11 12 16 12 17 12 10 10 9 9 9 9 8 6 5 6 7 7 7 7 6 6 5 5 5 7 7 7 9 9 9 8 8 7 7 7 7 8 8 9 9 9 9 9 9 9
11 9 10 11 13 14 14 15 14 11 11 10 9 9 9 8 6 7 7 7 8 7 7 6 5 5 5 6 6 6 8 9 9 9 9 9 8 8 7 8 8 9 9 10 10 10 10 10 10
9 11 11 12 13 18 13 14 15 13 10 10 9 8 8 7 6 6 6 6 7 6 6 5 5 5 5 5 7 7 8 9 10 10 10 10 9 9 8 8 9 9 10 10 10 11 10 11 11
11 13 17 18 19 19 12 14 13 10 9 9 9 8 8 7 6 5 6 6 6 6 5 5 5 5 5 6 6 7 8 9 9 9 9 10 10 10 10 10 10 10 10 10 10 11 11 11 11
13 13 17 21 21 18 13 17 14 9 8 9 10 9 9 8 7 7 6 6 5 5 5 5 5 5 5 6 7 7 7 8 8 8 8 8 8 9 9 10 10 10 10 10 11 11 11 12 12
12 14 11 15 16 19 16 14 10 8 8 9 9 10 10 9 8 7 7 6 5 5 5 5 5 6 5 6 7 7 7 8 7 7 6 7 7 8 8 9 10 11 11 11 11 11 11 11 11
10 9 15 16 21 22 18 16 16 12 10 10 11 11 10 9 8 7 6 6 6 6 5 5 5 5 5 5 5 6 6 6 6 6 6 6 6 6 8 9 9 10 11 11 11 11 11 12 12
12 13 12 13 15 20 20 17 11 11 10 11 11 10 11 9 8 8 7 6 5 4 4 5 5 5 6 6 5 6 6 6 6 6 5 5 5 6 7 8 9 10 11 11 11 12 12 12 13
11 12 12 17 18 16 18 17 9 10 10 9 9 10 11 8 8 7 7 7 6 5 5 5 5 6 6 6 6 6 5 6 7 7 6 6 6 7 7 8 9 10 10 11 11 11 12 12 13

GFSSGP_con_lsi_168.txt.gz
Lid_Strength_Index
3 6 7 8 12 14 16 13 12 10 11 8 6 7 8 8 9 11 3 2 0 0 -0 -0 -0 -1 -1 -1 -1 -1 -1 -1 -1 -1 -1 -1 -1 -1 -1 -1 -1 -1 -2 -1 -1 -2 -1 -1 -1
3 7 7 11 14 16 13 13 12 9 8 6 7 7 8 9 5 5 3 1 0 0 -0 -0 -1 -1 -1 -1 -1 -1 -1 -1 -1 -1 -1 -1 -1 -1 -1 -1 -1 -1 -2 -1 -1 -2 -1 -1 -2
5 7 9 13 16 16 15 13 11 10 6 7 8 6 7 8 5 4 2 0 0 0 -0 -0 -0 -1 -1 -1 -1 -1 -1 -1 -1 -1 -1 -1 -1 -1 -1 -1 -1 -1 -1 -1 -1 -1 -1 -2 -2
8 8 10 13 14 13 13 11 11 12 7 6 7 9 6 3 4 2 1 0 0 0 0 0 -0 -0 -1 -1 -1 -1 -1 -1 -1 -1 -1 -1 -1 -1 -1 -1 -1 -1 -1 -1 -1 -1 -2 -1 -1
10 10 13 14 14 13 12 11 10 10 8 7 7 9 8 4 3 3 1 0 1 0 0 0 0 -0 -1 -1 -1 -1 -1 -1 -1 -1 -1 -1 -1 -1 -1 -1 -1 -1 -1 -1 -1 -1 -1 -1 -1
12 11 14 16 14 12 11 11 10 11 10 7 8 8 7 3 4 4 1 1 0 1 0 0 -0 -0 -0 -0 -0 -0 -0 -0 -1 -1 -1 -1 -1 -1 -1 -1 -1 -1 -1 -1 -1 -1 -1 -1 -1
12 14 15 15 15 13 11 10 10 10 7 8 6 9 7 5 2 2 1 1 1 1 1 0 0 -0 0 1 1 0 0 -0 -0 -0 -0 -1 -0 -0 -1 -1 -1 -1 -1 -1 -1 -1 -1 -1 -1
12 13 15 15 15 14 11 10 10 10 10 4 5 9 9 5 2 2 1 1 1 1 1 1 0 1 1 1 1 0 0 0 0 -0 -0 0 -0 -0 -0 -0 -0 -1 -0 -0 -1 -1 -0 -0 -0
11 14 15 15 14 13 10 11 10 10 9 6 6 6 4 3 2 3 3 2 2 2 2 0 -0 0 1 1 0 0 -0 0 0 -0 0 1 1 0 -0 -0 -0 -1 -0 -0 -1 -1 -0 -0 -0
12 14 14 12 12 12 10 11 10 10 10 7 7 5 3 3 3 4 4 4 3 3 1 1 0 0 -0 -0 1 1 0 0 1 1 1 1 1 1 0 -0 -0 -0 -0 -0 -0 -0 -0 -0 0
12 13 12 11 9 9 11 10 10 11 10 9 9 7 5 4 4 4 4 3 3 2 1 1 1 0 1 -0 0 1 1 1 1 1 1 1 1 1 2 2 2 1 0 0 -0 -0 -0 0 0
12 10 10 9 9 9 9 10 11 10 9 8 8 5 5 5 5 4 4 3 3 2 2 1 1 1 2 1 0 1 1 2 2 2 2 2 3 3 3 3 3 3 3 2 0 0 -0 0 0
11 10 9 8 9 9 9 10 10 10 9 9 9 5 5 5 4 3 3 3 3 3 3 3 2 3 2 1 1 2 2 2 2 2 2 3 3 4 4 4 4 3 3 3 3 2 1 2 1
9 9 9 9 9 9 10 10 11 9 9 9 9 5 5 5 4 4 4 3 3 3 3 3 2 2 2 2 2 2 2 2 2 3 4 3 3 3 3 3 3 4 4 4 3 3 3 3 3
8 11 10 10 11 10 10 12 12 9 9 9 9 10 5 5 4 4 3 3 3 2 2 3 2 2 2 3 3 3 3 4 5 6 5 3 3 3 3 3 3 4 5 5 6 6 5 5 4
11 12 15 12 10 10 11 13 10 9 9 9 9 10 9 5 4 3 3 3 3 2 2 2 2 2 3 3 4 4 4 6 7 6 6 5 4 3 3 3 4 6 6 6 6 6 7 6 7
12 17 15 12 10 10 10 12 9 8 9 10 10 10 10 10 4 4 3 3 3 2 3 3 5 5 5 6 6 6 6 6 7 7 7 6 4 4 4 4 5 5 5 5 5 6 6 6 6
16 15 15 15 12 11 12 12 10 9 10 10 10 9 9 9 8 7 3 3 3 3 3 5 6 7 7 7 6 6 7 8 8 8 7 6 5 5 5 6 6 5 6 5 6 6 6 7 6
12 14 14 13 10 12 12 12 10 9 11 10 10 9 9 8 7 7 4 3 3 4 5 6 8 7 7 6 6 6 7 7 5 6 6 6 6 6 6 6 5 6 6 6 6 6 7 8 5
12 13 13 11 10 11 12 11 10 10 10 10 10 9 9 8 6 5 4 5 4 5 5 7 7 7 6 6 6 5 7 8 8 8 8 7 7 7 6 7 7 6 7 6 6 6 8 8 8
12 13 13 12 11 11 12 13 11 10 10 9 9 9 8 7 7 6 5 6 7 7 7 7 7 6 5 6 7 7 8 8 8 9 9 8 8 7 7 7 7 7 7 7 7 7 7 9 9
14 11 11 12 13 16 12 17 12 12 11 10 9 9 8 8 8 7 6 6 7 7 6 5 6 5 5 5 5 6 6 7 8 8 9 9 8 8 8 7 7 7 7 8 8 8 8 8 9
12 10 11 11 14 15 14 16 14 11 12 11 10 8 8 8 8 8 7 6 6 6 6 5 4 4 4 4 4 5 7 8 9 9 9 9 9 8 8 8 8 8 8 8 8 8 9 8 9
10 12 13 14 14 18 15 15 16 14 12 11 9 8 7 7 7 7 6 6 7 6 6 5 4 4 4 4 5 6 7 8 9 10 9 9 9 9 8 8 9 9 9 9 9 9 9 9 9
12 14 18 19 19 19 14 15 14 12 10 9 10 8 8 7 7 6 7 7 7 6 6 5 4 4 4 4 6 6 7 8 8 9 9 9 9 9 9 9 9 10 9 9 9 9 10 9 9
13 14 17 22 21 18 14 17 14 10 10 9 9 9 8 8 7 7 6 6 6 5 6 5 5 5 4 5 5 5 5 7 7 7 7 8 8 9 9 9 9 9 9 10 10 10 10 11 10
13 15 12 16 17 19 16 15 11 10 11 10 10 9 10 9 7 7 7 6 6 6 6 6 5 5 5 5 6 6 6 7 6 7 7 7 7 7 8 8 8 9 9 9 9 10 10 11 12
12 11 15 17 21 22 18 17 16 12 12 11 12 11 10 9 9 8 7 6 6 6 5 6 6 5 4 4 5 5 6 6 7 7 7 7 7 7 7 8 7 8 8 8 9 10 11 11 12
13 14 13 13 16 19 20 18 12 11 11 12 12 11 11 9 10 10 9 8 7 6 6 6 6 5 5 5 5 5 6 6 7 7 7 7 6 7 7 7 7 7 7 8 9 9 10 11 11
12 13 13 17 18 17 18 17 12 11 11 11 11 11 13 11 9 10 9 8 7 6 5 5 6 5 5 6 6 6 6 6 6 7 7 7 6 6 6 7 7 7 8 8 8 9 10 10 10

GFSSGP_con_lsi_171.txt.gz
Lid_Strength_Index
1 4 3 5 8 8 10 9 8 8 7 6 5 6 6 6 7 8 1 0 -0 -0 -1 -1 -1 -1 -1 -1 -1 -1 -1 -1 -1 -1 -1 -1 -1 -1 -1 -1 -1 -2 -2 -2 -2 -2 -1 -1 -1
2 4 4 7 9 10 10 9 9 8 6 5 5 6 6 7 5 4 2 0 -0 -0 -1 -1 -1 -1 -1 -1 -1 -1 -1 -1 -1 -1 -1 -1 -1 -1 -1 -1 -1 -1 -2 -2 -2 -2 -1 -1 -1
4 5 5 8 11 11 10 9 10 9 6 6 7 5 6 7 4 3 1 -0 -0 -0 -1 -1 -1 -1 -1 -1 -1 -1 -1 -1 -1 -1 -1 -1 -1 -1 -1 -1 -1 -2 -2 -2 -2 -2 -2 -2 -1
6 4 7 8 10 9 9 8 8 7 6 5 6 7 5 3 3 2 0 -0 -0 -0 -1 -0 -0 -1 -1 -1 -1 -1 -1 -1 -1 -1 -1 -1 -1 -1 -1 -1 -1 -1 -2 -1 -1 -1 -2 -2 -2
7 7 8 9 10 9 8 8 8 8 6 6 6 7 6 3 1 1 0 -0 0 -0 -1 -1 0 -0 -1 -1 -1 -1 -1 -1 -1 -1 -1 -1 -1 -1 -1 -1 -1 -1 -1 -1 -1 -2 -2 -1 -1
8 7 9 10 10 9 8 8 8 8 6 6 7 7 6 2 2 2 0 0 -0 -0 -1 -1 -1 -1 -1 -1 -0 -0 -1 -1 -1 -1 -1 -1 -1 -1 -1 -1 -1 -1 -1 -1 -1 -1 -1 -1 -1
8 9 10 10 10 10 9 7 8 8 6 6 5 8 5 4 3 2 0 0 -0 -1 -1 -1 -1 -1 -0 0 0 0 -0 -0 -1 -0 -0 -1 -1 -1 -1 -1 -1 -1 -1 -1 -1 -1 -1 -1 -1
9 9 11 11 11 10 9 7 8 8 7 4 4 7 6 4 2 1 0 0 0 -0 -0 -1 -1 -1 -1 -1 1 0 0 -0 -0 -0 -0 -0 -0 -1 -1 -1 -1 -1 -1 -1 -1 -1 -1 -1 -1
8 10 11 11 11 10 7 8 7 7 7 6 4 5 4 2 2 2 2 1 1 1 -0 -1 -1 -1 -1 -1 -1 -0 -0 -0 -0 -0 0 0 -1 -1 -1 -1 -0 -1 -0 -0 -1 -1 -1 -1 -1
9 11 11 10 9 9 7 8 8 8 8 7 5 4 3 2 3 3 3 3 2 2 1 0 -0 -1 -1 -1 -1 -1 -1 -1 -1 -1 -1 -1 -1 -1 -1 -1 -0 -1 -0 -0 -1 -1 -0 -1 -2
9 10 10 9 7 7 8 7 7 7 8 6 6 6 4 4 3 3 3 3 2 1 1 1 0 -1 -1 -1 -1 -1 -1 -1 -1 -1 -1 -1 -1 -1 -1 -1 -1 -1 -1 -1 -1 -1 -1 -1 -2
9 8 8 7 7 7 8 7 8 8 7 6 6 6 3 4 4 4 3 3 2 2 2 1 0 -0 -1 -1 -0 -1 -1 -1 -1 -1 -1 -1 -1 -1 -1 -1 -1 -1 -2 -1 -2 -1 -2 -1 -0
8 8 7 7 7 7 7 8 8 8 6 6 6 7 5 4 4 3 2 2 2 2 1 1 0 -0 -0 -0 0 0 -1 -1 -1 -1 -1 -1 -1 -1 -1 -0 -0 -0 -1 -1 -1 -1 -1 -1 -0
7 7 7 7 7 8 8 8 8 7 6 5 6 6 5 4 3 3 3 3 2 2 1 1 1 0 0 1 0 -0 -1 -1 -0 -0 -0 -0 -0 -0 -0 -0 -1 -1 -1 -1 -2 -1 -1 -1 -0
6 9 8 9 8 8 8 9 9 7 6 6 6 6 6 3 3 3 3 3 2 2 1 1 1 1 2 1 1 -0 -1 0 1 2 1 1 0 -0 -1 -1 -1 -1 1 0 0 0 0 1 2
8 9 12 10 8 8 7 11 7 6 7 6 6 6 6 6 4 3 2 2 1 1 1 2 2 2 1 0 -0 1 2 3 4 4 3 2 1 0 -0 -1 -1 1 2 1 1 1 2 2 2
10 13 12 10 8 8 8 9 7 6 7 7 7 7 6 5 4 4 2 2 1 1 1 1 2 3 1 2 4 5 5 6 5 5 4 3 2 1 0 0 1 1 1 1 1 2 2 3 1
13 13 12 12 9 8 9 9 8 7 7 7 7 6 6 5 4 3 3 2 1 1 1 1 3 3 4 5 5 5 5 5 5 5 4 4 2 2 1 2 2 2 2 2 1 1 2 2 1
11 12 12 10 9 10 10 10 8 7 7 7 7 6 5 5 3 3 2 2 2 1 1 4 5 6 5 4 4 4 4 5 6 6 6 5 4 3 3 3 3 3 2 2 2 2 2 2 1
11 12 12 10 9 10 9 10 7 8 8 8 7 6 6 5 4 3 3 2 2 3 3 4 6 6 4 4 4 4 4 6 6 7 7 6 6 5 5 4 5 4 4 3 3 3 3 3 1
11 12 12 12 10 9 10 10 9 8 7 7 6 5 5 5 5 4 4 4 4 5 5 6 6 7 6 6 6 6 6 6 7 7 6 6 7 6 6 6 5 5 4 3 3 3 3 4 2
13 9 10 11 12 14 9 15 10 9 9 7 6 6 6 5 4 5 5 5 5 5 6 5 5 5 5 4 4 4 5 5 6 5 5 6 6 6 6 5 5 5 5 5 5 5 4 4 4
11 9 10 10 12 12 12 13 11 9 10 8 7 6 6 5 5 5 6 5 4 3 4 4 4 5 3 2 1 2 4 5 4 6 6 6 6 6 6 5 5 4 5 5 5 5 5 4 5
8 10 11 11 11 16 12 13 13 11 9 8 7 6 6 5 4 4 4 4 4 3 2 3 4 2 1 1 1 2 2 5 5 5 5 6 6 5 5 5 5 5 5 6 6 5 6 5 5
9 11 16 17 17 17 12 13 12 9 8 8 7 6 5 5 5 4 4 3 3 3 2 2 1 1 1 1 1 1 1 2 3 4 4 4 5 5 5 4 4 4 5 5 5 6 6 5 4
11 11 15 20 19 16 12 15 12 8 7 7 6 6 5 5 4 4 4 3 3 2 2 2 2 2 1 1 1 1 1 1 1 2 2 3 3 3 3 3 3 4 4 5 6 6 6 5 6
11 13 10 14 15 16 14 12 9 9 9 8 7 7 6 5 4 4 3 3 3 2 2 2 2 1 1 1 1 1 1 1 1 2 2 2 2 2 2 2 3 3 4 5 5 5 6 6 6
10 9 14 14 20 20 16 15 13 11 10 9 9 8 7 6 5 5 4 3 2 2 2 2 2 1 1 1 1 1 1 1 2 2 2 2 2 2 2 2 2 3 3 4 4 5 5 6 7
11 12 12 12 14 18 18 15 9 9 9 9 9 9 7 6 6 5 5 4 3 3 2 2 2 1 1 1 1 1 1 1 2 2 2 2 2 2 3 2 2 3 3 3 4 5 5 6 7
9 11 11 15 17 15 15 14 10 8 8 9 9 9 8 7 6 6 5 5 5 3 2 2 2 2 2 2 2 2 2 2 2 1 1 2 2 2 2 2 3 4 4 3 5 6 6 7 7